Dewpoint
50 54 55 57 58 57 57 56 55 53 49 48 48 46 47 46 44 42 42 41 40 40 39 39 39 37 38 38 36 38 39 40
49 49 51 52 53 55 52 53 51 48 47 46 43 43 45 44 42 40 40 38 37 36 37 38 38 37 38 39 38 37 36 41
44 46 48 48 50 52 50 47 46 47 45 46 47 44 45 42 39 37 38 36 37 37 38 39 38 37 38 39 38 36 37 41
42 42 43 45 45 44 43 44 43 44 45 43 42 43 44 41 39 34 36 36 37 37 38 38 37 37 38 38 38 37 36 38
39 37 37 37 37 38 38 39 38 39 39 38 38 38 39 40 35 33 35 36 36 37 36 37 36 38 39 38 38 36 37 34
37 36 36 37 38 38 38 38 39 38 38 40 40 39 40 35 33 34 33 35 35 35 36 37 38 37 36 36 35 33 34 32
39 40 40 39 39 38 38 39 38 39 38 39 38 38 33 32 35 35 35 35 36 36 37 37 37 36 35 34 34 33 33 32
40 40 40 40 39 39 38 36 35 35 34 34 34 33 32 34 35 36 36 37 38 38 37 36 35 35 34 33 31 30 30 28
40 39 37 35 34 34 35 34 34 36 37 36 36 36 36 37 38 38 38 38 37 37 36 34 33 33 32 33 33 30 31 28
39 39 38 37 38 37 35 35 35 35 35 36 37 38 37 37 38 38 38 37 37 37 35 36 36 35 35 33 32 28 29 29
38 36 35 36 36 38 38 33 27 26 27 30 29 28 29 32 34 35 36 36 36 35 35 35 35 33 30 31 30 28 28 29
34 34 33 31 31 29 26 23 21 22 24 26 27 29 30 31 32 35 35 34 34 34 35 32 29 30 30 27 25 25 25 29
34 32 30 24 22 22 21 21 21 23 24 25 27 29 30 30 31 33 33 33 33 32 32 34 34 31 27 23 22 23 26 23
33 32 29 22 21 20 21 21 20 21 21 23 26 29 31 30 30 30 31 30 31 33 35 35 33 28 22 23 23 25 22 20
33 31 26 21 21 20 20 20 20 21 21 23 26 28 31 32 33 32 31 32 34 35 35 34 27 22 23 24 23 21 20 21
32 31 25 21 22 21 19 19 20 21 21 22 25 29 31 32 33 34 35 35 35 36 32 23 24 23 23 22 20 21 21 21
32 31 26 22 21 19 18 18 19 21 22 21 26 29 30 30 32 32 33 35 35 34 27 26 22 22 24 25 25 26 24 24
30 30 30 24 21 19 17 17 19 21 22 22 25 29 30 29 31 31 32 33 32 31 28 22 22 23 26 27 28 26 23 22
29 30 29 22 21 19 18 18 19 20 21 23 26 29 29 30 30 30 30 31 32 31 23 23 24 27 26 26 25 21 20 19
Wind_Speed
8 7 12 15 18 20 15 15 14 11 9 14 11 14 12 12 13 12 11 11 10 12 12 14 11 11 12 10 9 8 4 8
9 13 15 21 17 19 15 14 10 14 8 9 9 5 5 8 9 10 12 11 11 13 10 10 9 12 10 10 6 8 8 12
14 14 19 21 19 16 15 17 15 13 10 6 4 5 3 6 9 12 11 11 8 8 7 8 9 8 9 9 9 3 2 9
18 17 16 19 19 18 17 13 12 7 8 9 6 5 5 4 6 6 8 9 9 8 8 7 6 5 6 6 6 5 3 2
14 16 15 16 14 12 13 11 8 6 4 5 2 1 1 2 4 3 6 7 6 4 5 5 5 4 5 6 5 8 5 5
23 13 10 10 9 10 7 8 10 8 10 10 7 7 6 5 3 2 3 4 7 5 1 3 4 4 5 6 5 8 5 2
14 11 9 6 8 8 9 13 13 13 13 11 11 10 8 4 3 6 6 6 7 5 1 5 6 6 5 3 5 4 4 3
9 10 13 9 8 10 13 15 16 14 15 13 10 8 5 3 8 10 10 13 11 5 5 6 5 3 4 6 6 4 2 1
8 11 14 17 16 16 15 15 13 11 10 8 5 6 7 10 11 13 14 15 12 5 8 8 7 3 3 6 8 5 5 3
15 12 13 14 14 13 13 13 12 10 10 9 10 9 10 11 15 16 15 15 7 8 8 3 4 4 9 10 9 9 6 8
16 13 13 13 14 14 14 12 10 10 10 11 9 11 12 13 13 16 16 9 2 7 6 2 4 9 15 11 10 10 10 9
14 12 10 12 15 14 12 10 9 8 7 7 8 8 9 11 13 14 11 7 7 10 8 9 9 9 12 12 11 10 10 9
11 11 12 11 12 9 10 6 4 3 3 3 4 6 7 9 11 11 10 10 9 11 6 6 11 12 9 10 11 10 9 6
9 9 11 11 10 8 5 5 5 2 0 2 4 6 8 11 12 13 11 11 8 6 8 10 11 9 7 10 8 6 4 6
9 9 10 8 7 9 10 8 4 4 3 4 6 8 9 12 14 14 13 11 12 9 10 12 8 5 7 5 2 4 5 7
10 8 10 9 11 12 10 8 7 5 6 7 9 9 10 12 14 14 14 14 11 10 10 7 4 4 3 1 3 4 7 11
10 10 13 16 15 15 11 10 8 6 8 10 11 10 12 14 15 15 15 13 13 12 5 8 6 6 4 2 4 7 8 10
11 11 13 17 15 12 10 8 9 8 9 12 13 12 13 16 15 15 15 14 9 9 7 1 6 6 5 6 7 6 9 10
10 10 10 10 6 6 6 8 10 10 11 14 14 13 14 16 16 17 16 13 12 8 1 5 6 6 7 6 6 7 8 11
Wind_Direction
29 45 76 95 102 99 97 94 91 97 94 91 75 69 58 51 60 64 68 67 66 77 60 50 44 53 41 37 34 24 35 360
83 84 94 96 89 97 102 105 113 129 111 100 88 105 86 75 76 71 65 64 58 58 56 57 55 57 51 41 24 19 9 360
85 91 97 100 112 118 125 128 134 134 131 145 163 154 149 104 78 61 57 56 55 72 80 65 55 65 56 54 63 29 359 28
106 102 104 113 117 128 127 123 124 124 120 124 111 110 98 81 49 54 43 42 45 59 69 79 93 115 110 89 80 70 35 345
115 111 105 106 102 101 109 116 113 105 86 76 84 128 134 98 114 75 63 62 70 103 139 152 149 118 102 102 91 74 80 30
130 123 116 96 92 88 78 66 49 42 48 48 61 74 88 104 102 80 173 188 187 195 171 170 133 99 76 70 62 49 42 357
103 99 92 62 70 79 75 66 49 58 70 74 86 103 121 133 251 277 295 278 277 236 307 116 99 74 56 35 46 55 63 35
132 142 137 117 93 88 83 87 78 73 75 80 96 121 165 250 294 299 305 313 308 291 123 94 74 51 20 15 5 317 311 6
147 141 115 105 98 93 94 87 80 63 61 53 24 351 330 319 319 315 304 300 296 171 156 134 91 78 288 246 248 259 237 270
147 137 112 107 97 95 95 87 68 50 44 37 31 22 2 336 322 312 300 290 258 173 132 94 316 294 286 257 256 273 274 272
152 141 123 113 105 102 103 96 90 68 53 43 30 15 360 344 332 323 315 306 243 176 189 346 285 239 256 256 256 257 257 275
149 124 112 113 118 113 108 99 82 68 56 38 19 0 352 351 343 329 309 274 225 203 216 201 232 276 286 270 265 281 278 274
141 130 131 125 115 122 107 112 116 111 69 25 357 343 337 332 323 307 275 254 239 233 224 271 294 293 285 273 276 281 270 269
145 151 161 153 134 125 153 190 191 167 246 308 316 320 321 320 317 320 299 276 280 285 284 287 301 293 281 270 266 267 259 268
175 179 175 155 161 184 211 221 227 243 262 286 305 316 314 312 317 313 304 297 287 288 301 295 292 304 292 283 232 250 280 299
192 188 183 188 208 218 225 239 248 261 271 292 300 305 318 320 312 310 307 304 284 289 299 300 300 308 341 265 262 322 322 319
196 187 195 214 220 223 233 249 267 270 278 295 299 312 313 314 312 317 312 305 304 302 315 319 323 53 30 5 4 328 329 332
194 204 221 222 226 228 242 272 289 282 287 300 298 303 305 306 311 311 310 302 299 293 316 311 82 53 35 24 28 17 350 324
213 229 243 233 248 231 270 292 292 286 290 297 302 299 303 310 312 310 308 297 293 294 128 118 100 73 52 34 12 341 328 313